• In Russia
  • List of Countries
  • For 7 days
  • Water Temperature
  • Satellite Maps
  • Weather Map
  • Weather Widgets
  • user-avatar
    Login

    Hourly Weather Wafra

    Today, 24 May, Thursday

    Time Temperature Precipitation Wind Pressure Humidity
    00:00 +36°C° 0 mm 2 mps 742 mmHg 16%
    01:00 +35°C° 0 mm 2 mps 742 mmHg 16%
    02:00 +34°C° 0 mm 1 mps 741 mmHg 16%
    03:00 +33°C° 0 mm 1 mps 741 mmHg 16%
    04:00 +33°C° 0 mm 1 mps 741 mmHg 17%
    05:00 +33°C° 0 mm 1 mps 741 mmHg 17%
    06:00 +31°C° 0 mm 0 mps 741 mmHg 17%
    07:00 +35°C° 0 mm 1 mps 741 mmHg 15%
    08:00 +37°C° 0 mm 1 mps 741 mmHg 13%
    09:00 +40°C° 0 mm 1 mps 742 mmHg 11%
    10:00 +41°C° 0 mm 1 mps 741 mmHg 11%
    11:00 +42°C° 0 mm 1 mps 741 mmHg 10%
    12:00 +42°C° 0 mm 1 mps 741 mmHg 10%
    13:00 +43°C° 0 mm 1 mps 740 mmHg 10%
    14:00 +43°C° 0 mm 2 mps 740 mmHg 9%
    15:00 +45°C° 0 mm 2 mps 739 mmHg 9%
    16:00 +44°C° 0 mm 4 mps 739 mmHg 10%
    17:00 +43°C° 0 mm 5 mps 739 mmHg 11%
    18:00 +44°C° 0 mm 6 mps 738 mmHg 12%
    19:00 +41°C° 0 mm 6 mps 738 mmHg 14%
    20:00 +40°C° 0 mm 6 mps 738 mmHg 16%
    21:00 +39°C° 0 mm 6 mps 738 mmHg 18%
    22:00 +37°C° 0 mm 5 mps 738 mmHg 18%
    23:00 +37°C° 0 mm 5 mps 738 mmHg 19%

    Tomorrow, 25 May, Friday

    Time Temperature Precipitation Wind Pressure Humidity
    00:00 +36°C° 0 mm 4 mps 738 mmHg 20%
    01:00 +36°C° 0 mm 4 mps 738 mmHg 19%
    02:00 +35°C° 0 mm 4 mps 738 mmHg 19%
    03:00 +35°C° 0 mm 4 mps 738 mmHg 18%
    04:00 +35°C° 0 mm 4 mps 738 mmHg 18%
    05:00 +35°C° 0 mm 4 mps 738 mmHg 18%
    06:00 +35°C° 0 mm 4 mps 738 mmHg 17%
    07:00 +37°C° 0 mm 5 mps 739 mmHg 15%
    08:00 +40°C° 0 mm 5 mps 739 mmHg 12%
    09:00 +42°C° 0 mm 6 mps 739 mmHg 10%
    10:00 +44°C° 0 mm 6 mps 739 mmHg 9%
    11:00 +45°C° 0 mm 5 mps 739 mmHg 8%
    12:00 +46°C° 0 mm 5 mps 739 mmHg 7%
    13:00 +46°C° 0 mm 5 mps 738 mmHg 7%
    14:00 +46°C° 0 mm 6 mps 738 mmHg 8%
    15:00 +46°C° 0 mm 6 mps 738 mmHg 9%
    16:00 +45°C° 0 mm 6 mps 738 mmHg 11%
    17:00 +44°C° 0 mm 6 mps 737 mmHg 13%
    18:00 +41°C° 0 mm 6 mps 737 mmHg 15%
    19:00 +40°C° 0 mm 6 mps 738 mmHg 18%
    20:00 +39°C° 0 mm 6 mps 738 mmHg 20%
    21:00 +38°C° 0 mm 6 mps 739 mmHg 23%
    22:00 +36°C° 0 mm 5 mps 739 mmHg 24%
    23:00 +36°C° 0 mm 5 mps 739 mmHg 24%

    Day after tomorrow, 26 May, Saturday

    Time Temperature Precipitation Wind Pressure Humidity
    00:00 +35°C° 0 mm 4 mps 739 mmHg 25%
    01:00 +35°C° 0 mm 4 mps 739 mmHg 24%
    02:00 +34°C° 0 mm 3 mps 739 mmHg 24%
    03:00 +34°C° 0 mm 3 mps 739 mmHg 23%
    04:00 +34°C° 0 mm 3 mps 739 mmHg 23%
    05:00 +34°C° 0 mm 3 mps 740 mmHg 23%
    06:00 +34°C° 0 mm 3 mps 740 mmHg 23%
    07:00 +35°C° 0 mm 3 mps 740 mmHg 21%
    08:00 +37°C° 0 mm 3 mps 740 mmHg 19%
    09:00 +39°C° 0 mm 3 mps 741 mmHg 17%
    10:00 +41°C° 0 mm 4 mps 741 mmHg 16%
    11:00 +42°C° 0 mm 4 mps 741 mmHg 15%
    12:00 +43°C° 0 mm 4 mps 741 mmHg 14%
    13:00 +44°C° 0 mm 4 mps 740 mmHg 14%
    14:00 +45°C° 0 mm 5 mps 740 mmHg 14%
    15:00 +45°C° 0 mm 5 mps 740 mmHg 14%
    16:00 +43°C° 0 mm 5 mps 740 mmHg 17%
    17:00 +42°C° 0 mm 6 mps 740 mmHg 19%
    18:00 +40°C° 0 mm 6 mps 740 mmHg 22%
    19:00 +39°C° 0 mm 5 mps 740 mmHg 25%
    20:00 +37°C° 0 mm 4 mps 741 mmHg 28%
    21:00 +36°C° 0 mm 4 mps 741 mmHg 30%
    22:00 +36°C° 0 mm 3 mps 741 mmHg 32%
    23:00 +35°C° 0 mm 3 mps 741 mmHg 33%

    27 May, Sunday

    Time Temperature Precipitation Wind Pressure Humidity
    00:00 +35°C° 0 mm 2 mps 741 mmHg 34%
    01:00 +34°C° 0 mm 2 mps 741 mmHg 35%
    02:00 +34°C° 0 mm 2 mps 741 mmHg 35%
    03:00 +32°C° 0 mm 2 mps 741 mmHg 35%
    04:00 +32°C° 0 mm 2 mps 741 mmHg 35%
    05:00 +32°C° 0 mm 2 mps 741 mmHg 35%
    06:00 +33°C° 0 mm 1 mps 742 mmHg 34%
    07:00 +35°C° 0 mm 2 mps 742 mmHg 31%
    08:00 +37°C° 0 mm 2 mps 742 mmHg 27%
    09:00 +39°C° 0 mm 2 mps 743 mmHg 23%
    10:00 +40°C° 0 mm 3 mps 742 mmHg 20%
    11:00 +42°C° 0 mm 3 mps 742 mmHg 17%
    12:00 +44°C° 0 mm 3 mps 742 mmHg 14%
    13:00 +44°C° 0 mm 4 mps 742 mmHg 13%
    14:00 +44°C° 0 mm 4 mps 741 mmHg 12%
    15:00 +46°C° 0 mm 5 mps 741 mmHg 11%
    16:00 +45°C° 0 mm 5 mps 741 mmHg 14%
    17:00 +43°C° 0 mm 5 mps 741 mmHg 16%
    18:00 +41°C° 0 mm 6 mps 741 mmHg 18%
    19:00 +40°C° 0 mm 5 mps 741 mmHg 21%
    20:00 +39°C° 0 mm 5 mps 741 mmHg 25%
    21:00 +37°C° 0 mm 4 mps 742 mmHg 28%
    22:00 +36°C° 0 mm 3 mps 741 mmHg 28%
    23:00 +36°C° 0 mm 3 mps 741 mmHg 29%

    28 May, Monday

    Time Temperature Precipitation Wind Pressure Humidity
    00:00 +35°C° 0 mm 2 mps 741 mmHg 29%
    01:00 +35°C° 0 mm 2 mps 741 mmHg 30%
    02:00 +34°C° 0 mm 2 mps 741 mmHg 30%
    03:00 +34°C° 0 mm 2 mps 740 mmHg 30%
    04:00 +34°C° 0 mm 2 mps 741 mmHg 30%
    05:00 +34°C° 0 mm 2 mps 741 mmHg 29%
    06:00 +34°C° 0 mm 2 mps 741 mmHg 28%
    07:00 +35°C° 0 mm 1 mps 741 mmHg 24%
    08:00 +37°C° 0 mm 1 mps 742 mmHg 20%
    09:00 +37°C° 0 mm 0 mps 742 mmHg 16%
    10:00 +41°C° 0 mm 1 mps 742 mmHg 14%
    11:00 +42°C° 0 mm 2 mps 741 mmHg 12%
    12:00 +45°C° 0 mm 3 mps 741 mmHg 10%
    13:00 +45°C° 0 mm 3 mps 741 mmHg 10%
    14:00 +45°C° 0 mm 3 mps 740 mmHg 10%
    15:00 +47°C° 0 mm 4 mps 740 mmHg 10%
    16:00 +45°C° 0 mm 4 mps 740 mmHg 10%
    17:00 +44°C° 0 mm 4 mps 740 mmHg 11%
    18:00 +43°C° 0 mm 4 mps 739 mmHg 12%
    19:00 +42°C° 0 mm 4 mps 740 mmHg 13%
    20:00 +40°C° 0 mm 3 mps 740 mmHg 14%
    21:00 +39°C° 0 mm 3 mps 740 mmHg 16%
    22:00 +39°C° 0 mm 3 mps 740 mmHg 16%
    23:00 +38°C° 0 mm 3 mps 739 mmHg 16%

    29 May, Tuesday

    Time Temperature Precipitation Wind Pressure Humidity
    00:00 +38°C° 0 mm 3 mps 739 mmHg 16%
    01:00 +38°C° 0 mm 3 mps 739 mmHg 17%
    02:00 +37°C° 0 mm 3 mps 739 mmHg 17%
    03:00 +37°C° 0 mm 2 mps 739 mmHg 17%
    04:00 +37°C° 0 mm 2 mps 739 mmHg 17%
    05:00 +37°C° 0 mm 2 mps 739 mmHg 17%
    06:00 +37°C° 0 mm 2 mps 740 mmHg 17%
    07:00 +39°C° 0 mm 2 mps 740 mmHg 16%
    08:00 +40°C° 0 mm 1 mps 740 mmHg 14%
    09:00 +41°C° 0 mm 1 mps 740 mmHg 13%
    10:00 +42°C° 0 mm 1 mps 740 mmHg 12%
    11:00 +44°C° 0 mm 1 mps 740 mmHg 11%
    12:00 +45°C° 0 mm 1 mps 739 mmHg 9%
    13:00 +46°C° 0 mm 2 mps 739 mmHg 9%
    14:00 +47°C° 0 mm 2 mps 739 mmHg 9%
    15:00 +47°C° 0 mm 3 mps 738 mmHg 9%
    16:00 +46°C° 0 mm 3 mps 738 mmHg 9%
    17:00 +47°C° 0 mm 4 mps 738 mmHg 10%
    18:00 +45°C° 0 mm 4 mps 738 mmHg 11%
    19:00 +44°C° 0 mm 4 mps 738 mmHg 13%
    20:00 +43°C° 0 mm 4 mps 738 mmHg 15%
    21:00 +40°C° 0 mm 3 mps 738 mmHg 16%
    22:00 +41°C° 0 mm 4 mps 738 mmHg 16%
    23:00 +41°C° 0 mm 4 mps 738 mmHg 17%
    Show more